Location: Strohbehn Observatory
(42.4649°N, 93.8239°W)
Time: 08:21:53
(UTC-06:00)

Daily predictions for brighter satellites

Satellite Brightness Start Highest point End
(mag) Time Altitude Azimuth Time Altitude Azimuth Time Altitude Azimuth
ATLAS 2AS CENTAUR R/B 3.1 16:57:28 10° NNW 17:05:37 74° NE 17:13:12 10° SE
Cosmos 1484 Rocket 4.4 17:10:44 10° E 17:12:44 14° ENE 17:14:43 10° NNE
USA 32 4.2 17:08:15 10° SSE 17:13:19 54° E 17:18:25 10° NNE
CZ-2C R/B 2.8 17:08:37 10° SE 17:13:22 45° ENE 17:18:16 10° N
MOS 1 4.5 17:08:53 10° SE 17:14:21 52° ENE 17:19:49 10° N
Cosmos 2263 Rocket 4.2 17:11:01 10° W 17:15:17 22° NW 17:19:36 10° N
Tiangong 1 2.7 17:14:21 10° SSW 17:16:50 23° SSE 17:19:20 10° E
SJ-12 4.1 17:14:34 10° SSE 17:18:31 48° ENE 17:22:30 10° N
Cosmos 1455 Rocket 3.3 17:17:39 10° N 17:21:58 50° ENE 17:26:16 10° SSE
SL-8 Rocket 4.0 17:22:56 10° N 17:29:08 88° E 17:35:17 10° S
IDEFIX/ARIANE 42P 2.6 17:24:37 10° SSE 17:29:44 62° ENE 17:34:51 10° N
AQUARIUS 4.1 17:28:37 10° SSE 17:33:04 66° ENE 17:37:32 10° N
Cosmos 1844 Rocket 3.4 17:33:44 10° SW 17:39:13 54° WNW 17:44:45 10° NNE
Thor Agena Rocket 3.6 17:34:07 10° NNE 17:39:21 72° ESE 17:44:36 10° S
Cosmos 2366 rocket 4.0 17:35:11 10° N 17:41:35 82° E 17:47:52 10° S
Cosmos 1812 2.6 17:37:48 10° S 17:41:39 79° E 17:45:31 10° N
SL-27 R/B 4.1 17:40:42 10° NW 17:44:09 39° WSW 17:47:32 10° S
Cosmos 2251 Rocket 4.0 17:41:23 10° NNW 17:46:42 68° WSW 17:51:57 10° S
Cosmos 2218 Rocket 4.2 17:42:49 10° N 17:49:08 78° W 17:55:18 10° S
CORIOLIS 4.1 17:45:43 10° SSE 17:51:07 86° ENE 17:56:33 10° NNW
Abrixas 2.9 17:50:47 10° NW 17:53:38 43° NNE 17:54:51 26° ENE
Okean 1 3.2 17:50:20 10° S 17:54:22 79° E 17:58:27 10° N
Meteor 1-18 Rocket 4.4 17:54:44 10° SSW 18:00:22 76° W 18:06:10 10° N
Cosmos 1346 Rocket 2.6 18:01:17 10° S 18:05:10 69° E 18:08:51 11° NNE
Cosmos 2297 3.8 18:00:31 10° S 18:06:01 56° ESE 18:10:21 16° NE
ISS -1.4 18:04:05 10° WNW 18:06:38 20° NNW 18:07:47 17° NNE
BREEZE M DEB (TANK) 3.3 17:57:51 10° SW 18:06:59 55° SSE 18:08:45 27° E
Meteor 2-21 4.4 18:01:24 10° N 18:07:35 73° E 18:13:42 10° SSE
Timation 2 Rocket 4.1 18:02:05 10° NNW 18:08:54 68° ENE 18:15:45 10° SE
NOSS 2-1 (E) 4.1 18:07:41 10° S 18:11:13 34° ESE 18:12:13 30° E
COSMO-SKYMED 1 2.5 18:10:34 13° NNE 18:14:23 61° E 18:18:40 10° S
Cosmos 1821 Rocket 4.1 18:09:50 10° N 18:15:42 47° ENE 18:21:32 10° SSE
NOAA 12 4.4 18:11:45 10° SE 18:16:40 41° ENE 18:21:34 10° N
SMAP 4.3 18:13:14 10° S 18:17:39 43° W 18:22:06 10° NNW
Cosmos 2278 Rocket 2.7 18:12:20 10° SW 18:17:53 58° WNW 18:23:29 10° NNE
SL-24 DEB 4.4 18:15:20 10° N 18:20:04 76° W 18:24:45 10° SSW
Intercosmos 25 2.7 18:17:25 10° N 18:20:36 62° E 18:23:53 10° SSE
CZ-3B DEB 2.9 18:20:57 10° WSW 18:25:06 55° NNW 18:31:37 20° NE
Genesis I 4.1 18:22:44 10° NW 18:26:32 49° WSW 18:30:17 10° SSE
USA 234 3.7 18:22:16 19° NE 18:26:59 57° NNW 18:33:19 10° WSW
Meteor 2-14 Rocket 4.3 18:21:26 10° N 18:27:36 77° E 18:33:44 10° SSE
SL-8 R/B 4.0 18:24:02 10° W 18:28:44 57° NNW 18:30:27 36° NE
Cosmos 2056 Rocket 4.0 18:27:21 10° SSE 18:32:16 38° ESE 18:32:40 37° E
METEOR-M 4.3 18:27:15 10° SE 18:32:20 48° ENE 18:37:28 10° N
Cosmos 1025 Rocket 3.1 18:31:40 10° S 18:35:56 55° E 18:36:25 52° ENE
Cosmos 921 Rocket 2.9 18:34:18 10° SSW 18:38:33 85° WNW 18:40:22 35° NNE
Cosmos 1833 Rocket 2.6 18:34:18 10° NNW 18:39:59 85° ENE 18:45:36 10° SSE
Cosmos 1743 2.8 18:37:10 10° N 18:41:03 77° W 18:44:54 10° S
Nadezhda 3 Rocket 4.1 18:34:58 10° SSW 18:41:10 75° W 18:47:29 10° N
NOSS 3-4 (A) 3.8 18:34:37 10° NNW 18:41:30 57° NE 18:45:08 30° ESE
NOSS 3-4 (C) 3.8 18:34:44 10° NNW 18:41:36 56° NE 18:45:08 31° ESE
Cosmos 2082 Rocket 2.3 18:37:10 10° NNW 18:42:50 79° WSW 18:48:30 10° SSE
Meteor 1-19 Rocket 4.2 18:37:24 10° S 18:43:12 88° E 18:49:06 10° N
COSMOS 2487 4.3 18:40:55 10° NW 18:44:10 33° WSW 18:47:25 10° SSW
Cosmos 1624 Rocket 4.0 18:40:35 10° S 18:45:36 53° ESE 18:46:01 52° E
Cosmos 1484 Rocket 4.0 18:43:18 10° S 18:46:51 41° W 18:50:25 10° NNW
GEOS 3 Rocket 3.4 18:47:42 36° SE 18:49:53 78° NE 18:55:01 10° NNW
Cosmos 1371 Rocket 3.9 18:45:20 10° SSW 18:50:39 74° ESE 18:52:09 48° NE
Meteor 1-28 Rocket 3.2 18:50:54 81° SW 18:50:54 81° SW 18:54:32 10° SSW
BREEZE-M DEB (TANK) 4.4 18:49:11 10° NW 18:49:44 14° NW 18:49:44 14° NW
Tiangong 1 2.7 18:49:44 10° WSW 18:51:36 34° WSW 18:51:36 34° WSW
Meteor 1-15 Rocket 4.2 18:47:52 10° N 18:53:43 60° ENE 18:59:26 10° SSE
Meteor 1-23 Rocket 4.1 19:04:04 10° S 19:09:47 88° W 19:11:35 46° N
Meteor 2-4 Rocket 3.9 19:13:50 10° SSW 19:19:09 63° WNW 19:21:04 38° NNW
Meteor 2-9 Rocket 4.3 19:14:21 10° NNW 19:19:46 67° W 19:25:02 10° S
ATLAS 3B CENTAUR R/B 4.4 19:56:04 10° WSW 20:07:15 27° SSW 20:08:44 26° S
